Weather History for Ortonville, MN

Change the Weather History Date:

Saturday, March 2, 2013

  Actual Average (KAQP) Record (KAQP)
Temperature  
Mean Temperature 12 °F -  
Max Temperature 24 °F 24 °F 35 °F (1999)
Min Temperature 0 °F 9 °F -14 °F (2003)
Degree Days  
Heating Degree Days 53    
Moisture  
Dew Point 9 °F    
Average Humidity 81    
Maximum Humidity 93    
Minimum Humidity 69    
Precipitation  
Precipitation 0.00 in - - ()
Sea Level Pressure  
Sea Level Pressure 30.22 in    
Wind  
Wind Speed 4 mph (SE)    
Max Wind Speed 13 mph    
Max Gust Speed -    
Visibility 7 miles    
Events Fog , Snow    
Averages and records for this station are not official NWS values.
T = Trace of Precipitation, MM = Missing Value Source: NWS Daily Summary

Daily Weather History Graph

Daily Weather History Graph

Search for Another Location

Airport:

Trip Planner

Search our weather history database for the weather conditions in past years. The results will help you decide how hot, cold, wet, or windy it might be!

Date:

Astronomy

Mar. 02, 2013 Rise Set
Actual Time 7:01 AM CST 6:14 PM CST
Civil Twilight 6:32 AM CST 6:44 PM CST
Nautical Twilight 5:57 AM CST 7:18 PM CST
Astronomical Twilight 5:23 AM CST 7:52 PM CST
Moon No Moon Rise 9:13 AM CST (3/2)
Length of Visible Light 12h 12m
Length of Day
11h 13m
Waning Gibbous, 74% of the Moon is Illuminated
Mar 2
Waning Gibbous
Mar 4
Last Quarter
Mar 11
New
Mar 19
First Quarter
Mar 27
Full

Hourly Weather History & Observations

Time (CST) Temp. Windchill Dew Point Humidity Pressure Visibility Wind Dir Wind Speed Gust Speed Precip Events Conditions
12:14 AM 6.8 °F -0.1 °F 3.2 °F 85% 30.34 in 5.0 mi WNW 3.5 mph - N/A   Clear
12:34 AM 6.8 °F -0.1 °F 3.2 °F 85% 30.34 in 5.0 mi WNW 3.5 mph - N/A   Clear
12:53 AM 6.8 °F - 3.2 °F 85% 30.34 in 5.0 mi Calm Calm - N/A   Clear
1:14 AM 5.0 °F - 1.4 °F 85% 30.34 in 5.0 mi Calm Calm - N/A   Clear
1:34 AM 3.2 °F -4.2 °F -0.4 °F 85% 30.35 in 7.0 mi WNW 3.5 mph - N/A   Clear
1:54 AM 3.2 °F - -0.4 °F 85% 30.34 in 7.0 mi Calm Calm - N/A   Clear
2:14 AM 3.2 °F - -0.4 °F 85% 30.33 in 7.0 mi Calm Calm - N/A   Clear
2:34 AM 3.2 °F - -0.4 °F 85% 30.33 in 1.8 mi Calm Calm - N/A   Mostly Cloudy
2:53 AM 1.4 °F - -2.2 °F 85% 30.33 in 0.5 mi Calm Calm - N/A Fog Light Freezing Fog
3:14 AM -0.4 °F - -4.0 °F 85% 30.33 in 2.0 mi Calm Calm - N/A   Overcast
3:34 AM 1.4 °F - -2.2 °F 85% 30.32 in 7.0 mi Calm Calm - N/A   Mostly Cloudy
3:53 AM 1.4 °F - -2.2 °F 85% 30.31 in 7.0 mi Calm Calm - N/A   Unknown
4:14 AM 1.4 °F - -2.2 °F 85% 30.31 in 0.5 mi Calm Calm - N/A Fog Light Freezing Fog
4:34 AM 1.4 °F - -2.2 °F 85% 30.31 in 0.5 mi Calm Calm - N/A Fog Light Freezing Fog
4:53 AM 1.4 °F - -2.2 °F 85% 30.31 in 1.8 mi Calm Calm - N/A   Overcast
5:14 AM 1.4 °F - -2.2 °F 85% 30.31 in 7.0 mi Calm Calm - N/A   Overcast
5:53 AM 1.4 °F - -2.2 °F 85% 30.30 in 0.2 mi Calm Calm - N/A   Haze
6:34 AM 1.4 °F - -2.2 °F 85% 30.30 in 1.2 mi Calm Calm - N/A   Overcast
6:53 AM 1.4 °F - -2.2 °F 85% 30.30 in 5.0 mi Calm Calm - N/A   Overcast
7:14 AM 3.2 °F - -2.2 °F 78% 30.30 in 3.0 mi Calm Calm - N/A   Haze
7:34 AM 3.2 °F - -0.4 °F 85% 30.29 in 3.0 mi Calm Calm - N/A   Overcast
7:53 AM 5.0 °F - 1.4 °F 85% 30.29 in 3.0 mi Calm Calm - N/A Snow Light Snow
8:14 AM 5.0 °F - 1.4 °F 85% 30.29 in 3.0 mi Calm Calm - N/A Snow Light Snow
8:33 AM 5.0 °F - 1.4 °F 85% 30.28 in 3.0 mi Calm Calm - N/A Snow Light Snow
8:54 AM 6.8 °F - 1.4 °F 79% 30.28 in 2.5 mi Calm Calm - N/A Snow Light Snow
9:14 AM 6.8 °F - 3.2 °F 85% 30.28 in 2.0 mi Calm Calm - N/A Snow Light Snow
9:33 AM 8.6 °F - 5.0 °F 85% 30.27 in 2.5 mi Calm Calm - N/A Snow Light Snow
9:54 AM 10.4 °F - 6.8 °F 85% 30.27 in 3.0 mi Calm Calm - N/A Snow Light Snow
10:14 AM 12.2 °F 6.1 °F 8.6 °F 85% 30.27 in 4.0 mi SE 3.5 mph - N/A Snow Light Snow
10:33 AM 14.0 °F 5.1 °F 10.4 °F 86% 30.27 in 7.0 mi SE 5.8 mph - N/A Snow Light Snow
10:54 AM 14.0 °F 3.9 °F 10.4 °F 86% 30.26 in 7.0 mi SE 6.9 mph - N/A   Scattered Clouds
11:13 AM 15.8 °F 5.1 °F 12.2 °F 86% 30.25 in 10.0 mi SE 8.1 mph - N/A   Scattered Clouds
11:34 AM 15.8 °F 5.1 °F 12.2 °F 86% 30.25 in 10.0 mi SE 8.1 mph - N/A   Mostly Cloudy
11:54 AM 17.6 °F 6.4 °F 14.0 °F 86% 30.24 in 10.0 mi SE 9.2 mph - N/A   Overcast
12:13 PM 17.6 °F 6.4 °F 15.8 °F 93% 30.24 in 10.0 mi SE 9.2 mph - N/A   Overcast
12:34 PM 17.6 °F 5.7 °F 15.8 °F 93% 30.23 in 10.0 mi SE 10.4 mph - N/A   Overcast
12:54 PM 19.4 °F 7.9 °F 14.0 °F 80% 30.22 in 10.0 mi SE 10.4 mph - N/A   Overcast
1:13 PM 21.2 °F 10.9 °F 14.0 °F 74% 30.21 in 10.0 mi SE 9.2 mph - N/A   Overcast
1:34 PM 21.2 °F 10.1 °F 14.0 °F 74% 30.20 in 10.0 mi SE 10.4 mph - N/A   Overcast
1:54 PM 23.0 °F 11.7 °F 15.8 °F 74% 30.19 in 10.0 mi SE 11.5 mph - N/A   Overcast
2:13 PM 23.0 °F 11.1 °F 15.8 °F 74% 30.17 in 10.0 mi SE 12.7 mph - N/A   Overcast
2:34 PM 24.8 °F 13.4 °F 15.8 °F 69% 30.16 in 10.0 mi SE 12.7 mph - N/A   Overcast
2:54 PM 24.8 °F 13.4 °F 15.8 °F 69% 30.16 in 10.0 mi SE 12.7 mph - N/A   Overcast
3:13 PM 24.8 °F 13.4 °F 15.8 °F 69% 30.16 in 10.0 mi SE 12.7 mph - N/A   Overcast
3:34 PM 24.8 °F 14.0 °F 15.8 °F 69% 30.16 in 10.0 mi SE 11.5 mph - N/A   Overcast
3:53 PM 24.8 °F 14.0 °F 15.8 °F 69% 30.15 in 10.0 mi SE 11.5 mph - N/A   Overcast
4:14 PM 24.8 °F 14.0 °F 15.8 °F 69% 30.15 in 10.0 mi SE 11.5 mph - N/A   Overcast
4:34 PM 23.0 °F 11.1 °F 15.8 °F 74% 30.14 in 10.0 mi SE 12.7 mph - N/A   Overcast
4:54 PM 24.8 °F 14.6 °F 15.8 °F 69% 30.14 in 10.0 mi SE 10.4 mph - N/A   Overcast
5:14 PM 23.0 °F 11.7 °F 15.8 °F 74% 30.13 in 10.0 mi SE 11.5 mph - N/A   Overcast
5:34 PM 23.0 °F 11.7 °F 15.8 °F 74% 30.12 in 10.0 mi SE 11.5 mph - N/A   Overcast
5:54 PM 21.2 °F 9.5 °F 15.8 °F 80% 30.12 in 10.0 mi SE 11.5 mph - N/A   Overcast
6:14 PM 21.2 °F 8.9 °F 15.8 °F 80% 30.12 in 10.0 mi SE 12.7 mph - N/A   Overcast
6:33 PM 21.2 °F 10.1 °F 15.8 °F 80% 30.12 in 10.0 mi SE 10.4 mph - N/A   Overcast
6:54 PM 21.2 °F 9.5 °F 15.8 °F 80% 30.12 in 10.0 mi SE 11.5 mph - N/A   Overcast
7:14 PM 21.2 °F 8.9 °F 15.8 °F 80% 30.12 in 10.0 mi SE 12.7 mph - N/A   Overcast
7:33 PM 21.2 °F 10.1 °F 15.8 °F 80% 30.12 in 10.0 mi SE 10.4 mph - N/A   Overcast
7:54 PM 21.2 °F 10.9 °F 15.8 °F 80% 30.12 in 10.0 mi SE 9.2 mph - N/A   Overcast
8:14 PM 21.2 °F 9.5 °F 15.8 °F 80% 30.12 in 10.0 mi SE 11.5 mph - N/A   Overcast
8:34 PM 21.2 °F 12.6 °F 15.8 °F 80% 30.12 in 10.0 mi ESE 6.9 mph - N/A   Overcast
8:54 PM 21.2 °F 10.1 °F 15.8 °F 80% 30.12 in 10.0 mi ESE 10.4 mph - N/A   Overcast
9:14 PM 21.2 °F 8.9 °F 15.8 °F 80% 30.11 in 10.0 mi ESE 12.7 mph - N/A   Mostly Cloudy
9:34 PM 19.4 °F 7.2 °F 15.8 °F 86% 30.10 in 10.0 mi ESE 11.5 mph - N/A   Scattered Clouds
9:54 PM 19.4 °F 7.2 °F 15.8 °F 86% 30.10 in 10.0 mi ESE 11.5 mph - N/A   Scattered Clouds
10:13 PM 19.4 °F 8.6 °F 14.0 °F 80% 30.09 in 10.0 mi SE 9.2 mph - N/A   Clear
10:34 PM 17.6 °F 6.4 °F 14.0 °F 86% 30.08 in 10.0 mi SE 9.2 mph - N/A   Clear
10:53 PM 17.6 °F 7.3 °F 12.2 °F 79% 30.08 in 10.0 mi SE 8.1 mph - N/A   Clear
11:14 PM 17.6 °F 7.3 °F 12.2 °F 79% 30.07 in 10.0 mi SE 8.1 mph - N/A   Clear
11:34 PM 17.6 °F 7.3 °F 14.0 °F 86% 30.06 in 10.0 mi ESE 8.1 mph - N/A   Clear
11:53 PM 17.6 °F 6.4 °F 12.2 °F 79% 30.05 in 10.0 mi SE 9.2 mph - N/A   Clear